loading
DOY 205 | 2024-07-23T03:30:06Z

SL-8 DEB, 1335

Orbit data source: Space-Track

SL-8 DEB, 1335 is space debris in LEO originally from a launch on Mon, 15 Mar 1965 UTC launched from the Tyuratam Missile And Space Complex (TTMTR). Debris objects in space refer to the collection of defunct objects orbiting the Earth. Examples of debris include non-operational satellites, rocket bodies, and fragments generated from explosions, collisions, or faulty payload assembly.

Loading next visibility...
Loading greatness...
SL-8 DEB details
NORAD ID1335
COSPAR ID
1965-020E
Orbit
LEO
Last TLE update18 hours ago
Origin
Flag of CISRVSN (CIS)
ManufacturerUnknown
BusUnknown
MotorUnknown
MassWet unknown, Dry mass unknown
Launch date (UTC)
1965-03-15 (59 years ago)
Launch vehicleUnknown
Launch site
Tyuratam Missile And Space Complex (TTMTR)
Object type
Payload
Rocket body
Debris
Radar Cross SectionMedium (>0.1 m² and <1 m²)
Predictive object data (real-time)
Latitude34.40338°
Longitude-92.44316°
Altitude1,042.998 km
Speed7.29 km/s
Apparent Right ascension01h 39m 41s
Apparent Declination0° 40' 34"
Sunlit
Object is in daylight
Predictive observer data (real-time)
Local Sidereal Time16:35:06
Azimuth55.748° ENE
Elevation-33.056°
Doppler factor1
Orbital elements
Apogee1,348.716 km
Perigee555.482 km
Semi-major axis7,330.236 km
Eccentricity0.054107
Inclination56.0731°
RAAN201.1426°
Arg. of periapsis30.1129°
True anomaly329.98584°
Mean anomaly332.9812°
Mean motion3.45833 °/min
BSTAR0.0015241
Period104.1 mins
Definitive object data (Epoch: 2024-07-22T09:32:25.82Z)
Latitude-0.00003°
Longitude117.40414°
Altitude604.84 km
Speed7.735 km/s
True Right ascension13h 24m 34s
True Declination0° 00' 00"
Sunlit
Object was in daylight at TLE epoch
TLE from 18 hours ago
0 SL-8 DEB
1 01335U 65020E   24204.39752107  .00005124  00000-0  15241-2 0  9998
2 01335  56.0731 201.1426 0541070  30.1129 332.9812 13.83275382913660
Epoch: 2024-07-22T09:32Z
No data available

SL-8 DEB Visibility forecast

Observer location: 39.9160978°, -105.1181434

SL-8 DEB is not visible in the next 10 days
Span
Click to sort rows by Start time (UTC) header in descending order
Start Az.
Max El. time (UTC)
Max El. Az.
Max El.
End time (UTC)
End Az.